Location: Unspecified
(49.2170°N, 0.0000°E)
Time: 11:36:26
(UTC+00:00)

Transit 4A - Pass Details

Date: 23 June 2019
Orbit: 862 x 982 km, 66.8° (Epoch: 21 July)

Event Time Altitude Azimuth Distance (km) Brightness Sun altitude
Rises 07:23:23 0° 189° (S) 3,608 10.9 30.6°
Reaches altitude 10° 07:26:01 10° 182° (S) 2,683 10.4 31.0°
Maximum altitude 07:31:52 42° 114° (ESE) 1,351 10.4 32.0°
Drops below altitude 10° 07:37:51 10° 46° (NE) 2,742 11.1 33.0°
Sets 07:40:33 0° 40° (NE) 3,697 11.5 33.4°
